Schneifelwetter: Wetterstation Hallschlag, 537 m . NN
Wetterdaten: Dienstag, 30.03.2010
Datum Zeit Temp. A. Feuchte A. Luftdruck Regen Wind Richtung Richtung Sonnenschein Helligkeit T Regen Taupunkt Windchill
30.03.2010 00:01 7,2 C 95 % 1000 hPa 0,0 l/m 5,5 km/h (1 Bft) O22.5 95 0 min 0 lux 0,00 min 6,5 C 7,2 C
30.03.2010 00:16 7,3 C 95 % 1000 hPa 1,2 l/m 9,0 km/h (2 Bft) O-SO45 110 0 min 0 lux 15,00 min 6,6 C 5,3 C
30.03.2010 00:31 7,4 C 96 % 999 hPa 0,0 l/m 9,9 km/h (2 Bft) S-SO 160 0 min 0 lux 0,00 min 6,8 C 4,8 C
30.03.2010 00:46 7,4 C 96 % 999 hPa 0,0 l/m 4,8 km/h (1 Bft) S-SO 155 0 min 0 lux 0,00 min 6,8 C 7,4 C
30.03.2010 01:01 7,3 C 96 % 999 hPa 0,0 l/m 0,0 km/h (0 Bft) S-SO 155 0 min 0 lux 0,00 min 6,7 C 7,3 C
30.03.2010 01:16 7,2 C 96 % 999 hPa 0,0 l/m 9,4 km/h (2 Bft) S 170 0 min 0 lux 0,00 min 6,6 C 4,9 C
30.03.2010 01:31 6,9 C 96 % 998 hPa 0,0 l/m 11,6 km/h (2 Bft) S22.5 175 0 min 0 lux 0,00 min 6,3 C 3,2 C
30.03.2010 01:46 6,7 C 96 % 998 hPa 0,0 l/m 0,3 km/h (0 Bft) S-SW 195 0 min 0 lux 0,00 min 6,1 C 6,7 C
30.03.2010 02:01 6,4 C 95 % 998 hPa 0,0 l/m 6,8 km/h (2 Bft) O 80 0 min 0 lux 0,00 min 5,7 C 6,1 C
30.03.2010 02:16 6,6 C 96 % 998 hPa 0,0 l/m 13,0 km/h (3 Bft) W-SW22.5 250 0 min 0 lux 0,00 min 6,0 C 2,0 C
30.03.2010 02:31 6,8 C 96 % 998 hPa 0,0 l/m 13,0 km/h (3 Bft) S22.5 175 0 min 0 lux 0,00 min 6,2 C 2,3 C
30.03.2010 02:46 6,9 C 97 % 998 hPa 0,0 l/m 17,6 km/h (3 Bft) S22.5 175 0 min 0 lux 0,00 min 6,5 C 0,2 C
30.03.2010 03:01 6,8 C 96 % 998 hPa 0,0 l/m 17,9 km/h (3 Bft) S22.5 170 0 min 0 lux 0,00 min 6,2 C -0,0 C
30.03.2010 03:16 6,6 C 96 % 997 hPa 0,0 l/m 14,7 km/h (3 Bft) S22.5 175 0 min 0 lux 0,00 min 6,0 C 1,2 C
30.03.2010 03:31 6,7 C 97 % 997 hPa 0,0 l/m 16,0 km/h (3 Bft) S-SO22.5 165 0 min 0 lux 0,00 min 6,3 C 0,7 C
30.03.2010 03:46 6,8 C 97 % 997 hPa 0,3 l/m 17,1 km/h (3 Bft) S22.5 175 0 min 0 lux 15,00 min 6,4 C 0,3 C
30.03.2010 04:01 7,0 C 97 % 997 hPa 0,0 l/m 16,6 km/h (3 Bft) S45 190 0 min 0 lux 0,00 min 6,6 C 0,8 C
30.03.2010 04:16 7,1 C 97 % 996 hPa 0,0 l/m 19,3 km/h (3 Bft) S22.5 185 0 min 0 lux 0,00 min 6,7 C -0,2 C
30.03.2010 04:31 7,2 C 97 % 996 hPa 0,0 l/m 23,8 km/h (4 Bft) S-SW45 195 0 min 0 lux 0,00 min 6,8 C -1,6 C
30.03.2010 04:46 7,3 C 97 % 996 hPa 0,0 l/m 27,8 km/h (4 Bft) S-SW45 210 0 min 0 lux 0,00 min 6,9 C -2,6 C
30.03.2010 05:01 7,1 C 97 % 996 hPa 0,0 l/m 18,1 km/h (3 Bft) SW22.5 215 0 min 0 lux 0,00 min 6,7 C 0,3 C
30.03.2010 05:16 7,0 C 97 % 996 hPa 0,0 l/m 19,6 km/h (3 Bft) S-SW45 210 0 min 0 lux 0,00 min 6,6 C -0,4 C
30.03.2010 05:31 6,9 C 96 % 996 hPa 0,0 l/m 13,2 km/h (3 Bft) S-SW45 195 0 min 0 lux 0,00 min 6,3 C 2,3 C
30.03.2010 05:46 7,0 C 97 % 996 hPa 0,0 l/m 17,5 km/h (3 Bft) SW22.5 230 0 min 0 lux 0,00 min 6,6 C 0,4 C
30.03.2010 06:01 7,2 C 97 % 995 hPa 0,0 l/m 18,5 km/h (3 Bft) SW45 215 0 min 0 lux 0,00 min 6,8 C 0,2 C
30.03.2010 06:16 7,2 C 97 % 995 hPa 0,0 l/m 22,9 km/h (4 Bft) S-SW45 210 0 min 0 lux 0,00 min 6,8 C -1,3 C
30.03.2010 06:31 7,3 C 97 % 995 hPa 0,0 l/m 26,6 km/h (4 Bft) SW67.5 215 0 min 0 lux 0,00 min 6,9 C -2,3 C
30.03.2010 06:46 7,2 C 97 % 995 hPa 0,0 l/m 18,5 km/h (3 Bft) S22.5 180 0 min 0 lux 0,00 min 6,8 C 0,2 C
30.03.2010 07:01 7,3 C 97 % 995 hPa 0,0 l/m 25,5 km/h (4 Bft) S-SW45 205 0 min 0 lux 0,00 min 6,9 C -2,0 C
30.03.2010 07:16 7,3 C 97 % 995 hPa 0,0 l/m 28,2 km/h (4 Bft) SW45 220 0 min 0 lux 0,00 min 6,9 C -2,7 C
30.03.2010 07:31 7,1 C 97 % 995 hPa 0,0 l/m 19,0 km/h (3 Bft) SW45 215 0 min 785 lux 0,00 min 6,7 C -0,1 C
30.03.2010 07:46 7,0 C 97 % 994 hPa 0,0 l/m 14,5 km/h (3 Bft) S22.5 170 0 min 1,41 klux 0,00 min 6,6 C 1,7 C
30.03.2010 08:01 6,8 C 97 % 994 hPa 0,0 l/m 16,8 km/h (3 Bft) S22.5 180 0 min 3,14 klux 0,00 min 6,4 C 0,4 C
30.03.2010 08:16 6,7 C 97 % 994 hPa 0,0 l/m 16,0 km/h (3 Bft) S45 170 0 min 4,45 klux 0,00 min 6,3 C 0,7 C
30.03.2010 08:31 6,7 C 96 % 994 hPa 0,0 l/m 13,4 km/h (3 Bft) S22.5 175 0 min 18,5 klux 0,00 min 6,1 C 1,9 C
30.03.2010 08:46 7,0 C 97 % 994 hPa 0,0 l/m 20,1 km/h (4 Bft) S22.5 175 0 min 22,2 klux 0,00 min 6,6 C -0,6 C
30.03.2010 09:01 7,6 C 96 % 994 hPa 0,0 l/m 21,6 km/h (4 Bft) S45 180 0 min 34,3 klux 0,00 min 7,0 C -0,4 C
30.03.2010 09:16 8,5 C 94 % 994 hPa 0,0 l/m 18,1 km/h (3 Bft) S-SW45 195 15 min 42,6 klux 0,00 min 7,6 C 2,0 C
30.03.2010 09:31 9,6 C 90 % 994 hPa 0,0 l/m 20,1 km/h (4 Bft) S22.5 170 15 min 46,1 klux 0,00 min 8,0 C 2,7 C
30.03.2010 09:46 9,6 C 87 % 994 hPa 0,0 l/m 19,8 km/h (3 Bft) S22.5 170 15 min 46,7 klux 0,00 min 7,5 C 2,8 C
30.03.2010 10:01 9,9 C 86 % 994 hPa 0,0 l/m 23,1 km/h (4 Bft) S22.5 170 15 min 51,5 klux 0,00 min 7,7 C 2,2 C
30.03.2010 10:16 10,2 C 84 % 994 hPa 0,0 l/m 23,6 km/h (4 Bft) S45 180 15 min 48,5 klux 0,00 min 7,6 C 2,5 C
30.03.2010 10:31 10,5 C 82 % 994 hPa 0,0 l/m 22,9 km/h (4 Bft) S22.5 185 15 min 53,2 klux 0,00 min 7,6 C 3,1 C
30.03.2010 10:46 11,0 C 79 % 994 hPa 0,0 l/m 22,4 km/h (4 Bft) S45 190 15 min 58,0 klux 0,00 min 7,5 C 3,9 C
30.03.2010 11:01 11,1 C 78 % 994 hPa 0,0 l/m 28,1 km/h (4 Bft) S-SW45 200 15 min 58,7 klux 0,00 min 7,4 C 2,6 C
30.03.2010 11:16 11,0 C 76 % 994 hPa 0,0 l/m 28,3 km/h (4 Bft) S45 190 15 min 57,9 klux 0,00 min 6,9 C 2,4 C
30.03.2010 11:31 10,6 C 76 % 994 hPa 0,0 l/m 30,5 km/h (5 Bft) SW45 220 15 min 64,5 klux 0,00 min 6,5 C 1,4 C
30.03.2010 11:46 10,8 C 77 % 993 hPa 0,0 l/m 27,9 km/h (4 Bft) S-SW45 200 15 min 49,8 klux 0,00 min 6,9 C 2,2 C
30.03.2010 12:01 10,4 C 77 % 993 hPa 0,0 l/m 25,5 km/h (4 Bft) S-SW45 195 0 min 25,5 klux 0,00 min 6,5 C 2,2 C
30.03.2010 12:16 10,8 C 76 % 993 hPa 0,0 l/m 22,8 km/h (4 Bft) S22.5 175 0 min 36,2 klux 0,00 min 6,7 C 3,5 C
30.03.2010 12:31 10,2 C 77 % 993 hPa 0,0 l/m 26,5 km/h (4 Bft) S45 170 0 min 20,9 klux 0,00 min 6,4 C 1,7 C
30.03.2010 12:46 9,4 C 78 % 993 hPa 0,0 l/m 26,8 km/h (4 Bft) S-SW22.5 205 0 min 10,2 klux 0,00 min 5,8 C 0,6 C
30.03.2010 13:01 9,4 C 80 % 993 hPa 0,0 l/m 24,5 km/h (4 Bft) S-SW45 205 0 min 16,9 klux 0,00 min 6,1 C 1,2 C
30.03.2010 13:16 9,2 C 81 % 993 hPa 0,0 l/m 19,0 km/h (3 Bft) SW22.5 225 0 min 9,6 klux 0,00 min 6,1 C 2,6 C
30.03.2010 13:31 9,2 C 80 % 993 hPa 0,0 l/m 24,3 km/h (4 Bft) S45 190 0 min 13,5 klux 0,00 min 5,9 C 0,9 C
30.03.2010 13:46 9,1 C 79 % 993 hPa 0,0 l/m 32,2 km/h (5 Bft) S-SW45 205 0 min 11,0 klux 0,00 min 5,7 C -1,1 C
30.03.2010 14:01 8,8 C 80 % 993 hPa 0,0 l/m 24,1 km/h (4 Bft) S-SW45 195 0 min 8,77 klux 0,00 min 5,5 C 0,5 C
30.03.2010 14:16 8,4 C 82 % 993 hPa 0,0 l/m 29,5 km/h (5 Bft) SW45 215 0 min 5,85 klux 0,00 min 5,5 C -1,5 C
30.03.2010 14:31 8,0 C 84 % 993 hPa 0,0 l/m 25,6 km/h (4 Bft) SW67.5 230 0 min 4,66 klux 0,00 min 5,5 C -1,0 C
30.03.2010 14:46 7,7 C 87 % 993 hPa 0,0 l/m 26,2 km/h (4 Bft) SW45 225 0 min 9,5 klux 0,00 min 5,7 C -1,6 C
30.03.2010 15:01 7,2 C 89 % 993 hPa 0,0 l/m 26,4 km/h (4 Bft) SW45 220 0 min 15,2 klux 0,00 min 5,5 C -2,4 C
30.03.2010 15:16 7,3 C 89 % 993 hPa 0,0 l/m 24,4 km/h (4 Bft) S-SW45 210 0 min 12,7 klux 0,00 min 5,6 C -1,6 C
30.03.2010 15:31 7,7 C 88 % 993 hPa 0,0 l/m 21,3 km/h (4 Bft) S-SW67.5 205 0 min 19,5 klux 0,00 min 5,8 C -0,1 C
30.03.2010 15:46 7,8 C 87 % 993 hPa 0,0 l/m 18,3 km/h (3 Bft) SW45 215 0 min 14,3 klux 0,00 min 5,8 C 1,1 C
30.03.2010 16:01 7,9 C 86 % 993 hPa 0,0 l/m 29,8 km/h (5 Bft) S-SW45 205 0 min 19,8 klux 0,00 min 5,7 C -2,3 C
30.03.2010 16:16 8,3 C 86 % 993 hPa 0,0 l/m 26,4 km/h (4 Bft) S-SW45 210 0 min 26,2 klux 0,00 min 6,1 C -0,9 C
30.03.2010 16:31 8,2 C 84 % 993 hPa 0,0 l/m 19,7 km/h (3 Bft) S-SW45 195 0 min 20,9 klux 0,00 min 5,7 C 1,1 C
30.03.2010 16:46 8,0 C 85 % 993 hPa 0,0 l/m 19,4 km/h (3 Bft) S22.5 175 0 min 11,7 klux 0,00 min 5,6 C 0,9 C
30.03.2010 17:01 7,9 C 87 % 993 hPa 0,0 l/m 16,3 km/h (3 Bft) S22.5 190 0 min 17,4 klux 0,00 min 5,9 C 2,0 C
30.03.2010 17:16 7,8 C 87 % 993 hPa 0,0 l/m 22,4 km/h (4 Bft) S-SW45 205 0 min 10,7 klux 0,00 min 5,8 C -0,4 C
30.03.2010 17:31 8,0 C 86 % 994 hPa 0,0 l/m 24,6 km/h (4 Bft) S-SW45 205 0 min 12,7 klux 0,00 min 5,8 C -0,8 C
30.03.2010 17:46 7,6 C 88 % 993 hPa 0,3 l/m 29,5 km/h (5 Bft) S-SW45 195 0 min 7,17 klux 15,00 min 5,7 C -2,6 C
30.03.2010 18:01 7,4 C 89 % 994 hPa 0,0 l/m 31,1 km/h (5 Bft) SW45 230 0 min 11,3 klux 0,00 min 5,7 C -3,3 C
30.03.2010 18:16 7,4 C 89 % 994 hPa 0,0 l/m 34,9 km/h (5 Bft) W-SW45 245 0 min 11,3 klux 0,00 min 5,7 C -4,1 C
30.03.2010 18:31 6,9 C 88 % 994 hPa 0,0 l/m 23,0 km/h (4 Bft) W22.5 260 0 min 6,54 klux 0,00 min 5,1 C -1,8 C
30.03.2010 18:46 6,9 C 89 % 993 hPa 0,0 l/m 20,7 km/h (4 Bft) SW22.5 225 0 min 7,05 klux 0,00 min 5,2 C -1,0 C
30.03.2010 19:01 7,0 C 88 % 993 hPa 0,3 l/m 22,8 km/h (4 Bft) SW45 215 0 min 6,16 klux 15,00 min 5,2 C -1,6 C
30.03.2010 19:16 6,8 C 88 % 993 hPa 0,0 l/m 23,0 km/h (4 Bft) SW45 225 0 min 5,26 klux 0,00 min 5,0 C -1,9 C
30.03.2010 19:31 6,8 C 88 % 994 hPa 0,0 l/m 21,5 km/h (4 Bft) SW45 230 0 min 6,16 klux 0,00 min 5,0 C -1,4 C
30.03.2010 19:46 6,4 C 87 % 993 hPa 0,0 l/m 36,4 km/h (5 Bft) SW45 215 0 min 4,49 klux 0,00 min 4,4 C -5,8 C
30.03.2010 20:01 6,1 C 88 % 993 hPa 0,0 l/m 23,2 km/h (4 Bft) SW45 225 0 min 1,82 klux 0,00 min 4,3 C -2,9 C
30.03.2010 20:16 5,7 C 89 % 993 hPa 0,0 l/m 18,8 km/h (3 Bft) SW45 220 0 min 653 lux 0,00 min 4,0 C -1,8 C
30.03.2010 20:31 5,4 C 90 % 993 hPa 0,0 l/m 18,9 km/h (3 Bft) S-SW45 205 0 min 87 lux 0,00 min 3,9 C -2,2 C
30.03.2010 20:46 5,1 C 91 % 993 hPa 0,0 l/m 15,7 km/h (3 Bft) S-SW22.5 205 0 min 9 lux 0,00 min 3,8 C -1,2 C
30.03.2010 21:01 4,7 C 91 % 994 hPa 0,0 l/m 13,0 km/h (3 Bft) SW22.5 215 0 min 0 lux 0,00 min 3,4 C -0,2 C
30.03.2010 21:16 4,9 C 93 % 993 hPa 0,0 l/m 16,2 km/h (3 Bft) S-SW45 195 0 min 0 lux 0,00 min 3,9 C -1,6 C
30.03.2010 21:31 5,5 C 94 % 994 hPa 0,0 l/m 17,3 km/h (3 Bft) S22.5 180 0 min 0 lux 0,00 min 4,6 C -1,4 C
30.03.2010 21:46 4,3 C 88 % 995 hPa 0,9 l/m 53,6 km/h (7 Bft) W-SW45 250 0 min 0 lux 15,00 min 2,5 C -11,5 C
30.03.2010 22:01 2,4 C 89 % 995 hPa 0,0 l/m 33,4 km/h (5 Bft) W22.5 260 0 min 0 lux 0,00 min 0,8 C -10,9 C
30.03.2010 22:16 1,6 C 91 % 996 hPa 0,3 l/m 30,8 km/h (5 Bft) W-SW22.5 250 0 min 0 lux 15,00 min 0,3 C -11,4 C
30.03.2010 22:31 1,2 C 92 % 996 hPa 0,0 l/m 22,9 km/h (4 Bft) W-SW22.5 255 0 min 0 lux 0,00 min 0,0 C -9,3 C
30.03.2010 22:47 1,1 C 93 % 996 hPa 0,3 l/m 28,8 km/h (4 Bft) W-SW22.5 250 0 min 0 lux 16,00 min 0,1 C -11,5 C
30.03.2010 23:01 1,1 C 94 % 996 hPa 0,0 l/m 32,0 km/h (5 Bft) W-SW45 250 0 min 0 lux 0,00 min 0,2 C -12,4 C
30.03.2010 23:16 1,2 C 95 % 996 hPa 0,0 l/m 40,0 km/h (6 Bft) W-SW45 255 0 min 0 lux 0,00 min 0,5 C -14,2 C
30.03.2010 23:31 1,2 C 95 % 997 hPa 0,0 l/m 29,0 km/h (5 Bft) W-SW22.5 255 0 min 0 lux 0,00 min 0,5 C -11,4 C
30.03.2010 23:46 1,2 C 95 % 997 hPa 0,0 l/m 27,5 km/h (4 Bft) W-SW45 255 0 min 0 lux 0,00 min 0,5 C -10,9 C
_ Min-Zeit 22:47 11:16 11:46 - 01:01 - - - - - 22:31 23:16
Minimum _ 1,1 C 76 % 993 hPa - 0,0 km/h (0 Bft) - - - - - 0,0 C -14,2 C
_ Max-Zeit 11:01 02:46 00:01 00:16 21:46 - - 09:16 11:31 22:47 09:31 00:46
Maximum _ 11,1 C 97 % 1000 hPa 1,2 l/m 53,6 km/h
W-SW (7 Bft)
- - 15 min 64,5 klux 16,00 min 8,0 C 7,4 C
Durchschnitt _ 7,1 C 90 % 995 hPa #3,6 l/m 21,6 km/h (4 Bft) S - #2:45 h 11,3 klux #1:46 h 5,6 C -0,5 C